Location: Diebersbach
(48.5163°N, 8.0558°E)
Time: 09:00:57
(UTC+00:00)

FALCON 9 DEB - Pass Details

Date: 20 June 2021
Orbit: 422 x 432 km, 53.0° (Epoch: 26 July)

Event Time Altitude Azimuth Distance (km) Brightness Sun altitude
Rises 01:30:16 0° 294° (WNW) 2,392 6.8 -13.1°
Reaches altitude 10° 01:32:25 10° 288° (WNW) 1,521 5.8 -13.0°
Maximum altitude 01:35:42 46° 214° (SW) 579 3.3 -12.7°
Drops below altitude 10° 01:38:58 10° 140° (SE) 1,507 5.7 -12.4°
Sets 01:41:06 0° 134° (SE) 2,367 6.7 -12.2°
